User: anonymous
Location: Bojarzin Observatory
(39.7980°N, 89.7627°W)
Time: 23:22:47
(UTC-05:00)
Language:

ISS - Orbit

View from above orbital plane
View from above orbital plane
View from above satellite
View from above satellite

Ground track
Ground track

The orbit data is extracted from the following two-line orbital elements,

1 25544U 98067A   14205.03348517  .00000829  00000-0  22220-4 0  7598
2 25544 051.6379 276.9703 0006158 285.1522 133.0073 15.50453855897048
Epoch (UTC): 24 July 2014 00:48:13
Eccentricity: 0.0006158
inclination: 51.6379°
perigee height: 411 km
apogee height: 419 km
right ascension of ascending node: 276.9703°
argument of perigee: 285.1522°
revolutions per day: 15.50453855
mean anomaly at epoch: 133.0073°
orbit number at epoch: 89704

The dashed part of the orbit path shows where the satellite is in the earth's shadow,  

DLR